Flag for Germany Weather past 2 weeks in Bingen am Rhein, Rhineland-Palatinate, Germany

Now
46 °F

Overcast.


Feels Like: 41 °F
Forecast: 44 / 51 °F
Wind: 12 mph from Southwest

Location: Wiesbaden Airport

Current Time: Dec 22, 2014 at 5:38:22 PM

Latest Report: Dec 22, 2014 at 3:58 PM


Visibility: N/A

Pressure: 30.22 "Hg

Humidity: 84%

Dew point: 41 °F

Location of Bingen am RheinLocation

Historic Weather in Bingen am Rhein — Graph

°F

Bingen am Rhein temperature yesterday

Maximum temperature yesterday: 45 °F (at 12:58 PM)
Minimum temperature yesterday: 37 °F (at 5:58 AM)
Average temperature yesterday: 42 °F

Past Weeks' High & Low Weather Summary

 TemperatureHumidityPressure
High55 °F (Dec 18, 9:01 PM)100% (Dec 8, 2:59 AM)30.48 "Hg (Dec 8, 2:59 AM)
Low31 °F (Dec 8, 9:58 PM)70% (Dec 9, 1:00 PM)29.62 "Hg (Dec 12, 6:58 PM)
Average42 °F91%30.06 "Hg
* Reported Dec 7 3:58 PM — Dec 22 3:58 PM, Bingen am Rhein, Weather by CustomWeather, © 2014

Note: Actual official high and low records may vary slightly from our data, if they occured in-between our weather recording intervals... More about our weather records

Advertising

Bingen am Rhein weather history for previous 24 hours

 ConditionsComfort  
Time TempWeatherWind HumidityBarometerVisibility
3:58 PM
Dec 22
46 °FOvercast.12 mph84%30.22 "HgN/A
2:58 PM46 °FOvercast.10 mph82%30.22 "HgN/A
1:58 PM46 °FOvercast.5 mph81%30.24 "HgN/A
12:58 PM46 °FOvercast.16 mph81%30.24 "HgN/A
11:58 AM46 °FOvercast.17 mph82%30.27 "HgN/A
10:58 AM46 °FOvercast.16 mph82%30.28 "HgN/A
9:58 AM45 °FOvercast.17 mph84%30.28 "HgN/A
8:58 AM45 °FOvercast.16 mph87%30.27 "HgN/A
7:58 AM45 °FOvercast.17 mph82%30.27 "HgN/A
7:02 AM45 °FOvercast.18 mph81%30.25 "HgN/A
6:58 AM45 °FOvercast.17 mph82%30.26 "HgN/A
5:58 AM45 °FOvercast.14 mph81%30.26 "HgN/A
4:58 AM45 °FOvercast.16 mph82%30.28 "HgN/A
4:03 AM45 °FOvercast.10 mph81%30.28 "HgN/A
3:58 AM45 °FOvercast.13 mph81%30.30 "HgN/A
2:58 AM44 °FOvercast.15 mph81%30.31 "HgN/A
1:58 AM45 °FOvercast.16 mph81%30.33 "HgN/A
12:58 AM45 °FOvercast.15 mph81%30.34 "HgN/A
11:58 PM
Dec 21
45 °FOvercast.12 mph81%30.35 "HgN/A
10:58 PM44 °FOvercast.15 mph82%30.35 "HgN/A
9:58 PM44 °FOvercast.15 mph82%30.36 "HgN/A
8:58 PM44 °FMostly cloudy.16 mph82%30.37 "HgN/A
7:58 PM44 °FOvercast.18 mph82%30.38 "HgN/A
6:58 PM44 °FOvercast.15 mph80%30.39 "HgN/A
5:58 PM45 °FOvercast.13 mph81%30.39 "HgN/A
Weather by CustomWeather, © 2014

See weather overviewHow to use our weather pages